Location: Kinloch
(38.7406°N, 90.3254°W)
Time: 15:32:37
(UTC+00:00)

COSMOS 2455 - Pass Details

Date: 13 February 2026
Orbit: 899 x 909 km, 67.1° (Epoch: 8 March)

Event Time Altitude Azimuth Distance (km) Brightness Sun altitude
Exits shadow 12:23:00 - 270° (W) 2,818 4.8 -6.8°
Reaches altitude 10° 12:23:58 10° 277° (W) 2,590 4.5 -6.6°
Maximum altitude 12:27:45 17° 317° (NW) 2,137 4.3 -5.9°
Drops below altitude 10° 12:31:33 10° 356° (N) 2,599 5.1 -5.2°
Sets 12:35:05 0° 16° (NNE) 3,544 6.0 -4.5°
